Weather in Kurzhino

Russia / Tomsk District     58°54′33″N   82°33′53″E
temp.,
°C
wind,
m/s
gust,
m/s
humid.,
%
clouds,
%
prec.,
mm/h
press.,
hPa
HPBL,
m
20 april, tue
tue2001:00−12nw5118797 0.1 1022578
04:00−13wnw41192100 0.0 1023517
07:00−13wnw41092100 0.1 1024538
10:00−9wnw477565 0.0 1023676
13:00−6w566892 0.0 10221034
16:00−4w4761100 0.0 10211420
19:00−5wsw4785100 0.1 10201018
22:00−6ssw3795100 0.4 1019579
21 april, wed
wed2101:00−6sse3795100 1.0 1018387
04:00−7ese369690 0.1 1018222
07:00−10e279868 0.2 1021139
10:00−4ene4681100 0.0 1023795
13:00−2ene4573100 0.1 10251161
16:00−1ne4671100 0.3 10281109
19:00−1ne36715 0.4 1031963
22:00−8nne22935 0.0 103514
22 april, thu
thu2201:00−9nne24955 0.0 103750
04:00−9nne25965 0.0 103977
07:00−8n25945 0.0 104298
10:00−1n23755 0.0 1043426
13:00+1nnw226850 0.0 1044966
16:00+2nw22639 0.0 10451060
19:00+2nnw23718 0.0 1045650
22:00−5w11945 0.0 104710
23 april, fri
fri2301:00−6s009614 0.0 104710
04:00−7s11975 0.0 104810
07:00−5s11915 0.0 104822
10:00+1s11685 0.0 1048374
13:00+4ssw11605 0.0 10471067
16:00+5ssw11545 0.0 10451214
19:00+4s12685 0.0 104573
22:00−2se22920 0.0 104541
24 april, sat
sat2401:00−3se23935 0.0 104442
04:00−4ese11954 0.0 104227
07:00−2se12885 0.0 104257
10:00+3se12685 0.0 1040495
13:00+6ese11575 0.0 1038985
16:00+7nne11555 0.0 10361059
19:00+5ne12745 0.0 103562
22:00−2ene11910 0.0 103510